User: anonymous   Login
Location: Azul
(36.7830°S, 59.8500°W)
Time: 02:06:55
(UTC-03:00)
Language:

AO-73 - Orbit

View from above orbital plane
View from above orbital plane
View from above satellite
View from above satellite

Ground track
Ground track

The orbit data is extracted from the following two-line orbital elements,

1 39444U 13066AE  21295.52847664  .00000613  00000-0  80251-4 0  9991
2 39444  97.5972 275.7516 0059048  94.0409 266.7558 14.82563793426267
Epoch (UTC): 22 October 2021 12:41:00
Eccentricity: 0.0059048
inclination: 97.5972°
perigee height: 580 km
apogee height: 662 km
right ascension of ascending node: 275.7516°
argument of perigee: 94.0409°
revolutions per day: 14.82563793
mean anomaly at epoch: 266.7558°
orbit number at epoch: 42626

The dashed part of the orbit path shows where the satellite is in the earth's shadow,  

DLR